Location: Earls Croome
(52.0667°N, 2.2000°W)
Time: 05:52:06
(UTC+00:00)

NOSS 3-3 (C) - Pass Details

Date: 17 November 2019
Orbit: 844 x 1368 km, 63.4° (Epoch: 05 December)

Event Time Altitude Azimuth Distance (km) Brightness Sun altitude
Exits shadow 06:39:24 - 254° (WSW) 3,321 6.3 -8.1°
Reaches altitude 10° 06:41:17 10° 259° (W) 2,657 5.8 -7.8°
Maximum altitude 06:47:17 47° 333° (NNW) 1,330 4.4 -7.0°
Drops below altitude 10° 06:54:06 10° 46° (NE) 3,013 6.9 -6.0°
Sets 06:57:07 0° 52° (NE) 4,059 7.7 -5.6°
